Location: Newark
(48.2308°N, 120.8549°W)
Time: 08:01:21
(UTC+00:00)

A-11 Canister half - Visible Passes

Search period start: 26 May 2020 00:00
Search period end: 05 June 2020 00:00
Orbit: 1515 x 1684 km, 47.2° (Epoch: 25 May)

Date Brightness Start Highest point End Pass type
(mag) Time Alt. Az. Time Alt. Az. Time Alt. Az.
26 May 9.5 04:23:09 10° WNW 04:31:53 49° SSW 04:40:42 10° SE visible
26 May 10.5 06:29:45 10° W 06:34:59 17° SW 06:39:26 12° SSW visible
27 May 10.5 06:06:35 10° W 06:12:12 18° SW 06:17:40 10° SSW visible
28 May 10.5 05:43:27 10° W 05:49:25 19° SW 05:55:27 10° S visible
29 May 10.4 05:20:21 10° W 05:26:37 21° SW 05:32:58 10° S visible
30 May 10.4 04:57:17 10° W 05:03:50 22° SW 05:10:28 10° S visible
31 May 10.4 04:34:14 10° W 04:41:03 24° SW 04:47:54 10° S visible
